Home   Weather   Coesfeld   Past weeks

Flag for Germany Past Weather in Coesfeld, North Rhine-Westphalia, Germany — Yesterday and Last 2 Weeks

Now
45 °F

Passing clouds.


Feels Like: 45 °F
Forecast: 54 / 69 °F
Wind: 1 mph from Southwest

Location: Rheine-Bentlage

Current Time: Sep 27, 2016 at 7:22:42 AM

Latest Report: Sep 27, 2016 at 6:20 AM


Visibility: N/A

Pressure: 30.27 "Hg

Humidity: 93%

Dew Point: 43 °F

Location of CoesfeldLocation

Past Weather in Coesfeld — Graph

°F

Coesfeld Temperature Yesterday

Maximum temperature yesterday: 70 °F (at 3:20 PM)
Minimum temperature yesterday: 50 °F (at 11:20 PM)
Average temperature yesterday: 60 °F

High & Low Weather Summary for the Past Weeks

 TemperatureHumidityPressure
High90 °F (Sep 13, 3:20 PM)100% (Sep 12, 7:20 AM)30.30 "Hg (Sep 12, 7:20 AM)
Low43 °F (Sep 27, 5:20 AM)35% (Sep 14, 4:20 PM)29.83 "Hg (Sep 15, 3:20 PM)
Average63 °F73%30.06 "Hg
* Reported Sep 12 5:20 AM — Sep 27 5:20 AM, Coesfeld, Weather by CustomWeather, © 2016

Note: Actual official high and low records may vary slightly from our data, if they occured in-between our weather recording intervals... More about our weather records

Advertising

Coesfeld Weather History for the Previous 24 Hours

Scroll right to see more
 ConditionsComfort  
Time TempWeatherWind HumidityBarometerVisibility
5:20 AM
Tue, Sep 27
43 °FQuite cool.1 mph100%30.27 "HgN/A
4:20 AM46 °FCool.2 mph100%30.24 "HgN/A
3:20 AM46 °FCool.No wind100%30.24 "HgN/A
2:20 AM48 °FCool.1 mph94%30.24 "HgN/A
1:20 AM48 °FCool.No wind94%30.24 "HgN/A
12:20 AM50 °FCool.No wind94%30.24 "HgN/A
11:20 PM
Mon, Sep 26
50 °FCool.No wind94%30.24 "HgN/A
10:20 PM52 °FCool.1 mph88%30.24 "HgN/A
9:20 PM59 °FCool.5 mph68%30.24 "HgN/A
8:20 PM61 °FRefreshingly cool.6 mph59%30.24 "HgN/A
7:20 PM59 °FCool.5 mph72%30.21 "HgN/A
6:20 PM63 °FMild.2 mph59%30.21 "HgN/A
5:20 PM68 °FMild.3 mph43%30.21 "HgN/A
4:20 PM68 °FMild.5 mph43%30.21 "HgN/A
3:20 PM70 °FPassing clouds.2 mph38%30.21 "HgN/A
2:20 PM68 °FScattered clouds.6 mph43%30.21 "HgN/A
1:20 PM66 °FScattered clouds.6 mph49%30.21 "HgN/A
12:20 PM66 °FScattered clouds.2 mph49%30.21 "HgN/A
11:20 AM64 °FPassing clouds.2 mph64%30.21 "HgN/A
10:20 AM59 °FPassing clouds.2 mph82%30.21 "HgN/A
9:20 AM55 °FPassing clouds.5 mph88%30.21 "HgN/A
8:20 AM52 °FFog.2 mph94%30.21 "HgN/A
7:20 AM52 °FFog.5 mph100%30.18 "HgN/A
Weather by CustomWeather, © 2016

See weather overviewHow to use our weather pages